Weather reports worldwide

Advertisment
Murcia/San Javier, Spain (8433): temperature & dewpoint: 30.03.2020 21:00:00 - 05.04.2020 21:00:00 (CEST)Murcia/San Javier, Spain (8433): wind speed: 30.03.2020 21:00:00 - 05.04.2020 21:00:00 (CEST)Murcia/San Javier, Spain (8433): wind direction: 30.03.2020 21:00:00 - 05.04.2020 21:00:00 (CEST)Murcia/San Javier, Spain (8433): reduced air pressure: 30.03.2020 21:00:00 - 05.04.2020 21:00:00 (CEST)Murcia/San Javier, Spain (8433): visibility: 30.03.2020 21:00:00 - 05.04.2020 21:00:00 (CEST)
Date & Time tt [°C] td [°C] ff [km/h] ff [kn] dd ppp [hPa] vv [km]
05.04.2020 21:00:00 - - - - - - -
05.04.2020 20:00:00 15,6 11,2 16 9 ENE 1019,7 30
05.04.2020 19:00:00 17,0 11,4 16 9 ENE 1019,5 -
05.04.2020 18:00:00 17,5 11,4 16 9 ENE 1019,6 -
05.04.2020 17:00:00 18,0 11,7 22 12 ENE 1019,5 30
05.04.2020 16:00:00 18,4 11,7 22 12 ENE 1020,1 -
05.04.2020 15:00:00 18,9 11,2 18 10 ENE 1021,1 25
05.04.2020 14:00:00 18,7 11,3 21 11 ENE 1021,0 20
05.04.2020 13:00:00 18,3 12,1 22 12 NE 1021,3 -
05.04.2020 12:00:00 18,0 12,4 18 10 NE 1021,4 -
05.04.2020 11:00:00 16,8 12,2 18 10 NNE 1021,4 20
05.04.2020 10:00:00 16,2 11,6 16 9 NNE 1020,9 -
05.04.2020 09:00:00 13,4 10,8 15 8 N 1020,6 20
05.04.2020 08:00:00 12,1 10,3 13 7 NNW 1020,2 20
05.04.2020 07:00:00 12,4 10,8 11 6 N 1019,5 -
05.04.2020 06:00:00 12,7 10,8 13 7 NNW 1019,3 -
05.04.2020 05:00:00 14,7 10,3 22 12 ENE 1019,2 -
05.04.2020 04:00:00 15,1 10,7 21 11 ENE 1019,4 -
05.04.2020 03:00:00 15,2 10,8 18 10 ENE 1020,0 -
05.04.2020 02:00:00 15,4 10,6 18 10 ENE 1020,3 -
05.04.2020 01:00:00 15,4 10,8 21 11 ENE 1020,2 -
05.04.2020 00:00:00 15,5 11,0 24 13 ENE 1019,8 -
04.04.2020 23:00:00 15,5 10,7 22 12 ENE 1020,3 20
04.04.2020 22:00:00 15,6 11,0 21 11 ENE 1020,2 -
04.04.2020 21:00:00 15,6 11,2 21 11 ENE 1019,8 -
04.04.2020 20:00:00 15,9 11,7 18 10 ENE 1019,5 20
04.04.2020 19:00:00 16,6 12,5 18 10 ENE 1019,0 -
04.04.2020 18:00:00 17,7 12,4 18 10 E 1018,9 -
04.04.2020 17:00:00 17,8 12,5 24 13 E 1018,8 25
04.04.2020 16:00:00 17,8 12,3 24 13 E 1018,9 -
04.04.2020 15:00:00 17,8 12,4 24 13 ENE 1019,3 -
04.04.2020 14:00:00 18,3 12,1 22 12 ENE 1019,7 20
04.04.2020 13:00:00 17,9 11,4 16 9 E 1020,1 -
04.04.2020 12:00:00 17,4 11,7 16 9 ENE 1020,3 -
04.04.2020 11:00:00 16,3 12,5 15 8 NE 1020,2 20
04.04.2020 10:00:00 15,6 12,6 15 8 NNE 1019,7 -
04.04.2020 09:00:00 11,2 10,6 9 5 N 1019,4 -
04.04.2020 08:00:00 9,3 8,7 9 5 NNW 1019,0 20
04.04.2020 07:00:00 9,6 8,8 8 4 NW 1018,7 -
04.04.2020 06:00:00 10,3 9,5 5 3 NW 1018,7 -
04.04.2020 05:00:00 9,5 8,9 5 3 WNW 1018,9 -
04.04.2020 04:00:00 9,5 8,6 8 4 NNW 1018,8 -
04.04.2020 03:00:00 10,1 9,2 8 4 NW 1019,1 -
04.04.2020 02:00:00 10,9 9,5 8 4 NW 1019,3 -
04.04.2020 01:00:00 12,7 9,9 4 2 W 1019,4 -
04.04.2020 00:00:00 14,5 10,3 11 6 SSE 1019,4 -
03.04.2020 23:00:00 - - - - - - -
03.04.2020 22:00:00 15,1 10,7 13 7 SSE 1018,7 -
03.04.2020 21:00:00 15,2 10,0 13 7 SSE 1018,0 -
03.04.2020 20:00:00 16,2 9,9 15 8 SE 1017,6 30
03.04.2020 19:00:00 17,3 9,0 15 8 SE 1017,5 -
03.04.2020 18:00:00 18,1 9,3 13 7 ESE 1017,3 -
03.04.2020 17:00:00 18,3 8,7 16 9 ESE 1017,1 30
03.04.2020 16:00:00 18,6 8,9 18 10 ESE 1017,3 -
03.04.2020 15:00:00 19,5 7,7 13 7 E 1017,6 30
03.04.2020 14:00:00 19,7 6,9 16 9 ENE 1017,7 30
03.04.2020 13:00:00 19,8 7,8 8 4 E 1017,8 -
03.04.2020 12:00:00 19,1 9,6 9 5 NNE 1017,8 -
03.04.2020 11:00:00 17,3 10,3 9 5 NNW 1017,5 30
03.04.2020 10:00:00 15,4 10,9 11 6 NW 1017,0 -
03.04.2020 09:00:00 13,6 11,5 9 5 NW 1016,4 30
03.04.2020 08:00:00 11,8 11,0 9 5 WNW 1015,5 25
03.04.2020 07:00:00 11,7 10,9 11 6 NNW 1015,1 -
03.04.2020 06:00:00 11,0 10,5 9 5 NW 1014,3 -
03.04.2020 05:00:00 10,8 10,5 8 4 WNW 1014,3 -
03.04.2020 04:00:00 11,6 11,4 8 4 NW 1014,2 -
03.04.2020 03:00:00 12,0 11,5 9 5 W 1014,4 -
03.04.2020 02:00:00 12,0 11,5 11 6 WSW 1014,4 -
03.04.2020 01:00:00 12,4 11,7 4 2 W 1014,6 -
03.04.2020 00:00:00 12,3 11,8 4 2 WNW 1014,6 -
02.04.2020 23:00:00 13,0 10,9 9 5 W 1014,2 15
02.04.2020 22:00:00 14,2 10,8 8 4 SSE 1013,7 -
02.04.2020 21:00:00 14,5 10,9 15 8 SSE 1012,6 -
02.04.2020 20:00:00 15,1 11,9 15 8 E 1012,1 25
02.04.2020 19:00:00 15,4 12,3 16 9 ESE 1011,7 -
02.04.2020 18:00:00 15,8 12,4 18 10 SE 1011,4 -
02.04.2020 17:00:00 16,7 11,7 11 6 SE 1011,4 25
02.04.2020 16:00:00 16,4 11,7 21 11 SSE 1011,3 -
02.04.2020 15:00:00 17,5 10,5 16 9 E 1011,3 -
02.04.2020 14:00:00 18,2 10,7 13 7 E 1011,5 25
02.04.2020 13:00:00 18,1 11,0 13 7 E 1012,1 -
02.04.2020 12:00:00 17,8 11,1 11 6 SSE 1012,3 -
02.04.2020 11:00:00 17,0 10,6 8 4 SE 1012,0 25
02.04.2020 10:00:00 14,8 11,3 2 1 NW 1011,9 -
02.04.2020 09:00:00 11,0 10,2 9 5 WNW 1011,7 25
02.04.2020 08:00:00 9,6 9,1 5 3 WNW 1011,5 25
02.04.2020 07:00:00 8,7 8,2 4 2 WSW 1011,1 20
02.04.2020 06:00:00 9,5 8,7 9 5 WSW 1011,0 -
02.04.2020 05:00:00 10,2 9,4 11 6 W 1011,1 -
02.04.2020 04:00:00 10,5 9,6 11 6 W 1011,5 -
02.04.2020 03:00:00 11,7 9,8 11 6 NNW 1011,9 -
02.04.2020 02:00:00 12,0 10,2 15 8 N 1012,4 -
02.04.2020 01:00:00 12,9 10,4 29 16 NW 1012,8 -
02.04.2020 00:00:00 14,5 11,9 18 10 WNW 1012,6 -
01.04.2020 23:00:00 15,6 10,6 21 11 N 1011,4 20
01.04.2020 22:00:00 16,0 12,9 13 7 NE 1011,0 -
01.04.2020 21:00:00 16,4 12,9 5 3 W 1010,0 -
01.04.2020 20:00:00 16,7 12,8 18 10 SW 1010,0 20
01.04.2020 19:00:00 17,6 13,4 24 13 SSW 1009,3 -
01.04.2020 18:00:00 19,7 14,4 26 14 SSW 1009,7 -
01.04.2020 17:00:00 20,9 14,0 24 13 SSW 1010,4 25
01.04.2020 16:00:00 21,4 14,1 22 12 S 1010,2 -
01.04.2020 15:00:00 20,8 13,8 13 7 SSE 1011,0 -
01.04.2020 14:00:00 20,5 14,5 13 7 SE 1011,7 20
01.04.2020 13:00:00 20,5 14,5 11 6 SSE 1012,2 -
01.04.2020 12:00:00 19,3 14,1 9 5 SSE 1012,7 -
01.04.2020 11:00:00 18,4 14,8 13 7 S 1012,3 15
01.04.2020 10:00:00 17,1 14,2 5 3 WSW 1012,0 -
01.04.2020 09:00:00 15,0 14,5 5 3 NW 1011,4 -
01.04.2020 08:00:00 13,3 13,1 8 4 NNW 1011,1 7
01.04.2020 07:00:00 13,3 13,0 11 6 WNW 1010,8 -
01.04.2020 06:00:00 13,6 13,3 4 2 NW 1010,6 -
01.04.2020 05:00:00 14,0 13,5 8 4 WSW 1011,0 -
01.04.2020 04:00:00 14,5 14,0 4 2 W 1011,5 -
01.04.2020 03:00:00 14,9 14,3 2 1 SSW 1011,9 -
01.04.2020 02:00:00 15,6 14,6 8 4 SE 1011,5 -
01.04.2020 01:00:00 15,5 14,4 9 5 ESE 1012,0 -
01.04.2020 00:00:00 14,3 13,5 4 2 ENE 1011,9 -
31.03.2020 23:00:00 14,3 13,5 4 2 NW 1011,4 15
31.03.2020 22:00:00 15,1 13,8 0 0 N 1010,5 -
31.03.2020 21:00:00 15,4 13,9 5 3 E 1009,9 -
31.03.2020 20:00:00 15,9 14,1 9 5 ESE 1009,5 20
31.03.2020 19:00:00 16,4 14,1 11 6 ESE 1009,2 -
31.03.2020 18:00:00 17,6 14,3 13 7 E 1008,9 -
31.03.2020 17:00:00 17,2 13,7 11 6 E 1008,8 25
31.03.2020 16:00:00 17,7 13,4 15 8 E 1008,8 -
31.03.2020 15:00:00 18,6 13,5 15 8 ENE 1008,9 25
31.03.2020 14:00:00 18,4 13,6 16 9 NNE 1009,1 20
31.03.2020 13:00:00 16,5 13,2 15 8 NNE 1008,9 -
31.03.2020 12:00:00 17,5 13,4 15 8 NNE 1009,1 -
31.03.2020 11:00:00 14,4 12,3 26 14 NNE 1008,5 20
31.03.2020 10:00:00 13,8 12,4 24 13 ENE 1008,3 -
31.03.2020 09:00:00 13,1 11,5 21 11 WNW 1009,9 7
31.03.2020 08:00:00 14,3 12,2 35 19 ENE 1007,3 15
31.03.2020 07:00:00 14,0 11,9 31 17 NE 1006,7 -
31.03.2020 06:00:00 14,0 12,2 31 17 NE 1007,0 -
31.03.2020 05:00:00 13,8 12,2 31 17 NE 1007,9 -
31.03.2020 04:00:00 13,9 12,3 29 16 NE 1008,9 -
31.03.2020 03:00:00 13,6 12,0 29 16 NE 1010,1 -
31.03.2020 02:00:00 13,4 12,0 34 18 NE 1010,4 -
31.03.2020 01:00:00 13,5 12,2 31 17 NE 1011,2 -
31.03.2020 00:00:00 13,5 12,1 37 20 NE 1011,3 -
30.03.2020 23:00:00 13,4 11,6 41 22 ENE 1011,2 10
30.03.2020 22:00:00 13,6 11,3 39 21 ENE 1011,7 -
30.03.2020 21:00:00 13,7 11,2 42 23 ENE 1011,0 -

tt = temperature
td = dewpoint
ff = wind speed
dd = wind direction
ppp = reduced air pressure
vv = visibility

Next stations